Terminal Aerodrome Forecast
Issued by NWS

Home | Current Version | Previous Version | Text Only | Print | Product List | Glossary On
Versions: 1 2 3 4 5 6 7 8 9 10 11 12 13 14 15 16 17 18 19 20 21 22 23 24 25 26 27 28 29 30 31 32 33 34 35 36 37 38
000
FTAK31 PANC 032331
TAFAEN
TAF
PAEN 032331Z 0400/0424 23006KT P6SM FEW080 SCT200
     FM041200 VRB03KT P6SM VCFG FEW003
     FM041600 04007KT P6SM SCT045 BKN070
     FM041900 06008KT P6SM VCSH SCT040 OVC060=

USA.gov is the U.S. government's official web portal to all federal, state and local government web resources and services.